Regional Weather Roundup
Issued by NWS Boston, MA

Home | Current Version | Previous Version | Text Only | Print | Product List | Glossary On
Versions: 1 2 3 4 5 6 7 8 9 10 11 12 13 14 15 16 17 18 19 20 21 22 23 24 25 26 27 28 29 30 31 32 33 34 35 36 37 38 39 40 41 42 43 44 45 46 47 48
167
ASUS41 KBOX 251810
RWRBOX

REGIONAL WEATHER ROUNDUP
NATIONAL WEATHER SERVICE TAUNTON MA
200 PM EDT TUE APR 25 2017

NOTE:  "FAIR" INDICATES FEW OR NO CLOUDS BELOW 12,000 FEET WITH NO
SIGNIFICANT WEATHER AND/OR OBSTRUCTIONS TO VISIBILITY.

MAZALL-251900-
EASTERN MASSACHUSETTS

CITY           SKY/WX    TMP DP  RH WIND       PRES   REMARKS
BOSTON         HVY RAIN  46  44  93 NE20G26   30.26S VSB 1
6HR MIN TEMP:  46; 6HR MAX TEMP:  49; 6HR PCP:  0.02;

BEVERLY        RAIN      46  44  93 NE16G26   30.26F FOG
LAWRENCE       LGT RAIN  48  42  80 NE21      30.29F
BEDFORD        LGT RAIN  46  42  86 NE9       30.25F FOG
BLUE HILL        N/A     43  42  97 NE21G35   30.21F
NORWOOD        RAIN      47  44  90 NE9       30.25R FOG
MARSHFIELD     LGT RAIN  46  45  93 NE8G14    30.23F VSB 1/2
PLYMOUTH       LGT RAIN  46  45  96 NE14      30.21F FOG
TAUNTON        LGT RAIN  48  46  93 NE6       30.20F FOG
NEW BEDFORD    RAIN      49  48  97 N10       30.17F FOG
$$

MAZALL-251900-
CAPE COD AND THE ISLANDS

CITY           SKY/WX    TMP DP  RH WIND       PRES   REMARKS
FALMOUTH         N/A     52  52 100 MISG      30.17
HYANNIS        CLOUDY    52  51  97 E17G28    30.14F
CHATHAM        CLOUDY    49  49 100 E15G23    30.19F FOG
PROVINCETOWN   LGT RAIN  46  45  96 E18       30.21F FOG
NANTUCKET      LGT RAIN  51  49  92 E20G32    30.14F FOG
MARTHAS VNYRD  HVY RAIN  52  51  97 E17G31    30.14F FOG
$$

MAZALL-251900-
CENTRAL AND WESTERN MASSACHUSETTS

CITY           SKY/WX    TMP DP  RH WIND       PRES   REMARKS
WORCESTER      LGT RAIN  46  42  86 NE15G23   30.19F FOG
6HR MIN TEMP:  46; 6HR MAX TEMP:  47; 6HR PCP:  0.03;

FITCHBURG      LGT RAIN  50  40  68 E8        30.26S
ORANGE         CLOUDY    51  44  77 E13       30.21F
SPRINGFIELD    CLOUDY    54  46  74 E9        30.16F
WESTFIELD      CLOUDY    52  49  89 N13       30.17F
NORTH ADAMS    CLOUDY    52  43  71 E24G33    30.16F
PITTSFIELD     CLOUDY    50  43  77 NE10G18   30.14F
$$

RIZALL-251900-
RHODE ISLAND

CITY           SKY/WX    TMP DP  RH WIND       PRES   REMARKS
PROVIDENCE     HVY RAIN  50  49  96 NE12      30.19S FOG
6HR MIN TEMP:  50; 6HR MAX TEMP:  52; 6HR PCP:  0.15;

NEWPORT        LGT RAIN  51  51 100 NE10G21   30.16R FOG
BLOCK ISLAND   LGT RAIN  49  49 100 NE15G24   30.12F FOG
SMITHFIELD     LGT RAIN  47  45  93 NE16G22   30.20F
WESTERLY       HVY RAIN  53  51  93 NE13G21   30.13R FOG
$$

CTZALL-251900-
CONNECTICUT

CITY           SKY/WX    TMP DP  RH WIND       PRES   REMARKS
BRADLEY INTL   CLOUDY    55  51  86 N14       30.14F
6HR MIN TEMP:  50; 6HR MAX TEMP:  55; 6HR PCP:  0.03;

HARTFORD       CLOUDY    57  50  77 NE9       30.12F
BRIDGEPORT     CLOUDY    58  53  84 NE13      30.07F
DANBURY        LGT RAIN  53  52  96 NE10      30.09F
GROTON         LGT RAIN  55  51  86 NE22G29   30.11R
NEW HAVEN      CLOUDY    57  53  86 NE8       30.08F FOG
CHESTER        LGT RAIN  54  52  94 NE9G17    30.10S
MERIDEN        LGT RAIN  58  51  78 VRB5      30.11F
WILLIMANTIC    CLOUDY    56  49  77 NE14G24   30.14F
OXFORD         LGT RAIN  54  46  76 E13G23    30.10F FOG
$$

MEZ002-015-021-024-NHZ003-005-008-011-012-014-VTZ005-008-251900-
NORTHERN NEW ENGLAND

CITY           SKY/WX    TMP DP  RH WIND       PRES   REMARKS
PORTLAND ME    CLOUDY    47  39  74 E16G24    30.36F
6HR MIN TEMP:  41; 6HR MAX TEMP:  48; 6HR PCP:  0.05;

BANGOR ME      CLOUDY    55  28  35 S15       30.39F
CONCORD NH     CLOUDY    49  42  77 E10       30.29F
MANCHESTER NH  CLOUDY    50  39  66 NE12      30.26F
NASHUA NH      CLOUDY    50  40  68 NE10G18   30.27F
PORTSMOUTH NH  CLOUDY    45  39  80 NE13      30.30F
JAFFREY NH     CLOUDY    49  42  77 VRB5      30.23F
KEENE NH       CLOUDY    50  42  74 N8        30.23F
BURLINGTON VT  LGT RAIN  56  37  49 S15G23    30.20F
MT. WASHINGTON FRZ RAIN  30  30 100 SE37        N/A  VSB 3/16WCI  14
$$

NYZ052-076-251900-
EASTERN NEW YORK

CITY           SKY/WX    TMP DP  RH WIND       PRES   REMARKS
ALBANY         CLOUDY    52  47  83 N6        30.17F
6HR MIN TEMP:  46; 6HR MAX TEMP:  52; 6HR PCP:  0.06;

NEW YORK CITY  CLOUDY    55  51  86 NE23G32   30.02F
6HR MIN TEMP:  51; 6HR MAX TEMP:  57; 6HR PCP:  0.01;

$$

ANZALL-251900-
MARINE OBSERVATIONS

STATION/POSITION TIME  TEMP    WIND        PRES    VSBY  WAVE
                       AIR SEA DIR/SP/G                  HT/PER
                 (UTC) (F)     (DEG/KT/KT) (MB)    (MI)  (FT/S)
BOSTON BUOY      1650   45 46   40/ 17/ 21 1023.4          4/ 5
BUZZARDS BAY     1700   49      40/ 23/ 26 1021.1F
NANTUCKET SOUND  1750      47              1020.3F         3/ 4
MASS BAY-STELLWA 1704   45 45   40/ 17/ 21 1024.1F         4/ 4
ISLE OF SHOALS   1700   43      30/ 23/ 27 1025.7F
S OF BLOCK IS    1755      47                N/A           5/ 5
$$

......................KEY.........................
  SKY/WX - SKY CONDITION/PRESENT WEATHER
  TMP    - TEMPERATURE IN FAHRENHEIT
  DWPT   - DEWPOINT IN FAHRENHEIT
  RH     - RELATIVE HUMIDITY IN PERCENT
  WIND   - DIRECTION AND SPEED IN MPH
  PRES   - MEAN SEA LEVEL PRESSURE IN INCHES OF HG
  WCI    - WIND CHILL INDEX
  VSB    - VISIBILITY IN MILES
  HX     - HEAT INDEX
  TC     - TEMPERATURE IN CELSIUS
  VRB    - VARIABLE WIND DIRECTION
  N/A    - NOT AVAILABLE




USA.gov is the U.S. government's official web portal to all federal, state and local government web resources and services.